Flag for Australia Weather past 2 weeks in Canberra, Australian Capital Territory, Australia

Now
36 °F

Clear.


Feels Like: 36 °F
Forecast: 40 / 60 °F
Wind: No wind

Location: Canberra Airport

Current Time: Aug 23, 2014 at 2:09:12 AM

Latest Report: Aug 23, 2014 at 1:00 AM


Visibility: N/A

Pressure: 30.45 "Hg

Humidity: 100%

Dew point: 36 °F

Location of CanberraLocation

Historic Weather in Canberra — Graph

°F

Canberra temperature yesterday

Maximum temperature yesterday: 59 °F (at 2:00 PM)
Minimum temperature yesterday: 34 °F (at 3:30 AM)
Average temperature yesterday: 46 °F

Past Weeks' High & Low Weather Summary

 TemperatureHumidityPressure
High59 °F (Aug 10, 1:00 PM)100% (Aug 8, 12:00 AM)30.57 "Hg (Aug 8, 12:00 AM)
Low23 °F (Aug 14, 5:00 AM)27% (Aug 20, 3:30 PM)29.74 "Hg (Aug 18, 12:30 AM)
Average44 °F75%30.26 "Hg
* Reported Midnight between Aug 7 and Aug 8 — Aug 23 12:56 AM, Canberra, Weather by CustomWeather, © 2014

Note: Actual official high and low records may vary slightly from our data, if they occured in-between our weather recording intervals... More about our weather records

Advertising

Canberra weather history for previous 24 hours

 ConditionsComfort  
Time TempWeatherWind HumidityBarometerVisibility
12:56 AM
Aug 23
36 °FClear.No wind100%30.45 "HgN/A
12:00 AM39 °FPassing clouds.No wind93%30.45 "HgN/A
11:30 PM
Aug 22
39 °FPassing clouds.1 mph93%30.45 "HgN/A
11:00 PM41 °FPassing clouds.6 mph93%30.45 "HgN/A
10:30 PM39 °FClear.5 mph100%30.45 "HgN/A
10:00 PM41 °FClear.5 mph100%30.45 "HgN/A
9:30 PM41 °FClear.6 mph100%30.45 "HgN/A
9:00 PM43 °FClear.5 mph93%30.45 "HgN/A
8:30 PM45 °FPassing clouds.3 mph87%30.45 "HgN/A
8:00 PM46 °FPassing clouds.5 mph82%30.45 "HgN/A
7:30 PM46 °FPassing clouds.7 mph87%30.42 "HgN/A
7:00 PM46 °FPassing clouds.6 mph82%30.42 "HgN/A
6:30 PM48 °FPassing clouds.9 mph76%30.42 "HgN/A
6:00 PM48 °FClear.9 mph76%30.39 "Hg10 mi
5:30 PM54 °FClear.9 mph63%30.39 "Hg10 mi
5:00 PM55 °FClear.10 mph63%30.39 "Hg10 mi
4:30 PM55 °FScattered clouds.8 mph51%30.39 "HgN/A
4:00 PM57 °FScattered clouds.6 mph51%30.36 "HgN/A
3:30 PM59 °FPartly sunny.10 mph48%30.39 "HgN/A
3:00 PM57 °FScattered clouds.8 mph51%30.39 "HgN/A
2:30 PM57 °FBroken clouds.5 mph51%30.39 "HgN/A
2:00 PM59 °FBroken clouds.8 mph51%30.39 "HgN/A
1:30 PM57 °FPartly sunny.6 mph55%30.39 "HgN/A
1:00 PM55 °FPartly sunny.10 mph59%30.42 "HgN/A
12:30 PM57 °FBroken clouds.8 mph59%30.42 "HgN/A
12:00 PM55 °FPartly sunny.7 mph63%30.45 "HgN/A
11:30 AM54 °FPartly sunny.6 mph67%30.45 "HgN/A
11:00 AM54 °FScattered clouds.5 mph67%30.48 "HgN/A
10:30 AM52 °FScattered clouds.5 mph72%30.48 "HgN/A
10:00 AM50 °FScattered showers. Broken clouds.6 mph76%30.48 "HgN/A
9:00 AM48 °FPartly sunny.6 mph87%30.48 "HgN/A
8:30 AM46 °FBroken clouds.5 mph93%30.48 "HgN/A
8:00 AM45 °FScattered showers. Partly sunny.5 mph93%30.48 "HgN/A
7:30 AM43 °FScattered showers. Partly sunny.2 mph93%30.48 "HgN/A
7:00 AM41 °FPartly sunny.No wind100%30.45 "HgN/A
6:30 AM37 °FPartly sunny.No wind100%30.45 "HgN/A
6:00 AM39 °FPartly sunny.No wind100%30.45 "HgN/A
5:30 AM37 °FPassing clouds.1 mph100%30.45 "HgN/A
5:00 AM36 °FPassing clouds.5 mph93%30.42 "HgN/A
4:30 AM36 °FPassing clouds.No wind100%30.42 "HgN/A
4:00 AM34 °FOvercast.No wind100%30.42 "HgN/A
3:30 AM34 °FPassing clouds.1 mph93%30.42 "HgN/A
3:00 AM36 °FPassing clouds.2 mph100%30.42 "HgN/A
2:30 AM36 °FPassing clouds.1 mph100%30.42 "HgN/A
2:00 AM36 °FClear.5 mph100%30.45 "HgN/A
Weather by CustomWeather, © 2014

See weather overviewHow to use our weather pages